When you browse on this site, cookies collect data to enhance your experience and personalize the content and advertising you see.
Visit our Privacy Policy to learn more. By continuing to use the site, you agree to this use of cookies and data.
  • In Sweden
  • List of Countries
  • For 7 days
  • Water Temperature
  • Satellite Maps
  • Weather Map
  • Weather Widgets
  • user-avatar
    Login

    Hourly Weather Dundee

    Today, 26 March, Tuesday

    Time Temperature Precipitation Wind Pressure Humidity
    00:00 +3°C° 0 mm 4 mps 763 mmHg 90%
    01:00 +1°C° 0 mm 4 mps 763 mmHg 91%
    02:00 +1°C° 0 mm 4 mps 763 mmHg 92%
    03:00 +1°C° 0 mm 4 mps 763 mmHg 93%
    04:00 +1°C° 0 mm 4 mps 762 mmHg 91%
    05:00 +2°C° 0 mm 5 mps 762 mmHg 89%
    06:00 +3°C° 0 mm 5 mps 762 mmHg 87%
    07:00 +5°C° 0 mm 5 mps 762 mmHg 83%
    08:00 +5°C° 0 mm 6 mps 762 mmHg 78%
    09:00 +7°C° 0 mm 6 mps 762 mmHg 74%
    10:00 +7°C° 0 mm 6 mps 762 mmHg 72%
    11:00 +8°C° 0 mm 6 mps 761 mmHg 70%
    12:00 +9°C° 0 mm 6 mps 761 mmHg 68%
    13:00 +9°C° 0 mm 7 mps 761 mmHg 68%
    14:00 +9°C° 0 mm 7 mps 761 mmHg 68%
    15:00 +10°C° 0 mm 7 mps 761 mmHg 67%
    16:00 +9°C° 0 mm 7 mps 761 mmHg 70%
    17:00 +8°C° 0 mm 7 mps 761 mmHg 73%
    18:00 +8°C° 0 mm 7 mps 761 mmHg 76%
    19:00 +6°C° 0 mm 7 mps 761 mmHg 80%
    20:00 +5°C° 0 mm 7 mps 761 mmHg 83%
    21:00 +5°C° 0 mm 6 mps 762 mmHg 87%
    22:00 +5°C° 0 mm 6 mps 762 mmHg 88%
    23:00 +5°C° 0 mm 6 mps 762 mmHg 89%

    Tomorrow, 27 March, Wednesday

    Time Temperature Precipitation Wind Pressure Humidity
    00:00 +4°C° 0 mm 6 mps 762 mmHg 90%
    01:00 +4°C° 0 mm 6 mps 762 mmHg 90%
    02:00 +4°C° 0 mm 6 mps 762 mmHg 91%
    03:00 +4°C° 0 mm 6 mps 762 mmHg 91%
    04:00 +4°C° 0 mm 6 mps 762 mmHg 91%
    05:00 +4°C° 0 mm 6 mps 762 mmHg 91%
    06:00 +4°C° 0 mm 6 mps 762 mmHg 91%
    07:00 +5°C° 0 mm 6 mps 762 mmHg 86%
    08:00 +7°C° 0 mm 6 mps 762 mmHg 82%
    09:00 +8°C° 0 mm 7 mps 762 mmHg 78%
    10:00 +9°C° 0 mm 7 mps 762 mmHg 75%
    11:00 +9°C° 0 mm 7 mps 763 mmHg 72%
    12:00 +10°C° 0 mm 7 mps 763 mmHg 70%
    13:00 +10°C° 0 mm 6 mps 763 mmHg 69%
    14:00 +10°C° 0 mm 6 mps 763 mmHg 68%
    15:00 +10°C° 0 mm 6 mps 763 mmHg 68%
    16:00 +9°C° 0 mm 6 mps 763 mmHg 70%
    17:00 +9°C° 0 mm 5 mps 763 mmHg 72%
    18:00 +8°C° 0 mm 5 mps 763 mmHg 74%
    19:00 +7°C° 0 mm 5 mps 763 mmHg 77%
    20:00 +6°C° 0 mm 5 mps 764 mmHg 80%
    21:00 +5°C° 0 mm 6 mps 764 mmHg 83%
    22:00 +5°C° 0 mm 6 mps 764 mmHg 84%
    23:00 +4°C° 0 mm 6 mps 764 mmHg 85%

    Day after tomorrow, 28 March, Thursday

    Time Temperature Precipitation Wind Pressure Humidity
    00:00 +4°C° 0 mm 6 mps 764 mmHg 86%
    01:00 +4°C° 0 mm 6 mps 764 mmHg 87%
    02:00 +4°C° 0 mm 6 mps 764 mmHg 88%
    03:00 +4°C° 0 mm 6 mps 764 mmHg 89%
    04:00 +5°C° 0 mm 5 mps 764 mmHg 90%
    05:00 +5°C° 0 mm 5 mps 765 mmHg 91%
    06:00 +3°C° 0 mm 5 mps 765 mmHg 92%
    07:00 +6°C° 0 mm 5 mps 765 mmHg 88%
    08:00 +7°C° 0 mm 6 mps 765 mmHg 84%
    09:00 +9°C° 0 mm 6 mps 766 mmHg 80%
    10:00 +10°C° 0 mm 6 mps 766 mmHg 76%
    11:00 +11°C° 0 mm 6 mps 765 mmHg 72%
    12:00 +13°C° 0 mm 6 mps 765 mmHg 69%
    13:00 +13°C° 0 mm 6 mps 765 mmHg 68%
    14:00 +14°C° 0 mm 6 mps 765 mmHg 68%
    15:00 +14°C° 0 mm 6 mps 765 mmHg 68%
    16:00 +13°C° 0 mm 6 mps 764 mmHg 71%
    17:00 +12°C° 0 mm 5 mps 764 mmHg 73%
    18:00 +10°C° 0 mm 5 mps 764 mmHg 76%
    19:00 +8°C° 0 mm 5 mps 764 mmHg 80%
    20:00 +7°C° 0 mm 5 mps 764 mmHg 83%
    21:00 +6°C° 0 mm 5 mps 764 mmHg 86%
    22:00 +6°C° 0 mm 5 mps 763 mmHg 88%
    23:00 +5°C° 0 mm 5 mps 763 mmHg 90%

    29 March, Friday

    Time Temperature Precipitation Wind Pressure Humidity
    00:00 +5°C° 0 mm 5 mps 763 mmHg 92%
    01:00 +5°C° 0 mm 5 mps 762 mmHg 92%
    02:00 +5°C° 0 mm 5 mps 762 mmHg 92%
    03:00 +5°C° 0 mm 5 mps 761 mmHg 92%
    04:00 +3°C° 0 mm 5 mps 761 mmHg 91%
    05:00 +3°C° 0 mm 5 mps 761 mmHg 91%
    06:00 +3°C° 0 mm 5 mps 760 mmHg 90%
    07:00 +5°C° 0 mm 6 mps 760 mmHg 83%
    08:00 +6°C° 0 mm 7 mps 760 mmHg 76%
    09:00 +9°C° 0 mm 7 mps 760 mmHg 69%
    10:00 +10°C° 0 mm 7 mps 760 mmHg 64%
    11:00 +11°C° 0 mm 7 mps 760 mmHg 59%
    12:00 +12°C° 0 mm 7 mps 760 mmHg 54%
    13:00 +12°C° 0 mm 7 mps 760 mmHg 55%
    14:00 +12°C° 0 mm 7 mps 760 mmHg 56%
    15:00 +12°C° 0 mm 7 mps 759 mmHg 58%
    16:00 +11°C° 0 mm 6 mps 759 mmHg 62%
    17:00 +10°C° 0 mm 6 mps 759 mmHg 67%
    18:00 +9°C° 0 mm 5 mps 759 mmHg 71%
    19:00 +8°C° 0 mm 4 mps 759 mmHg 74%
    20:00 +7°C° 0 mm 4 mps 759 mmHg 78%
    21:00 +8°C° 0 mm 3 mps 760 mmHg 81%
    22:00 +7°C° 0 mm 3 mps 759 mmHg 84%
    23:00 +7°C° 0 mm 3 mps 759 mmHg 87%

    30 March, Saturday

    Time Temperature Precipitation Wind Pressure Humidity
    00:00 +5°C° 0 mm 3 mps 759 mmHg 90%
    01:00 +5°C° 0 mm 3 mps 759 mmHg 91%
    02:00 +4°C° 0 mm 3 mps 759 mmHg 91%
    03:00 +4°C° 0 mm 3 mps 759 mmHg 92%
    04:00 +4°C° 0 mm 3 mps 759 mmHg 93%
    05:00 +4°C° 0 mm 3 mps 759 mmHg 93%
    06:00 +3°C° 0 mm 3 mps 759 mmHg 93%
    07:00 +5°C° 0 mm 3 mps 759 mmHg 88%
    08:00 +7°C° 0 mm 2 mps 759 mmHg 82%
    09:00 +9°C° 0 mm 2 mps 760 mmHg 76%
    10:00 +9°C° 0.1 mm 2 mps 760 mmHg 75%
    11:00 +8°C° 0.1 mm 3 mps 760 mmHg 75%
    12:00 +8°C° 0.1 mm 3 mps 760 mmHg 74%
    13:00 +8°C° 0 mm 3 mps 760 mmHg 68%
    14:00 +9°C° 0 mm 3 mps 760 mmHg 62%
    15:00 +9°C° 0 mm 3 mps 760 mmHg 56%
    16:00 +8°C° 0 mm 3 mps 761 mmHg 56%
    17:00 +7°C° 0 mm 3 mps 761 mmHg 55%
    18:00 +6°C° 0 mm 4 mps 762 mmHg 55%
    19:00 +5°C° 0 mm 4 mps 763 mmHg 57%
    20:00 +2°C° 0 mm 5 mps 763 mmHg 59%
    21:00 +1°C° 0 mm 6 mps 764 mmHg 61%
    22:00 -1°C° 0 mm 6 mps 765 mmHg 63%
    23:00 0°C° 0 mm 5 mps 765 mmHg 65%

    31 March, Sunday

    Time Temperature Precipitation Wind Pressure Humidity
    00:00 -1°C° 0 mm 5 mps 766 mmHg 67%
    01:00 -1°C° 0 mm 5 mps 766 mmHg 68%
    02:00 -2°C° 0 mm 4 mps 766 mmHg 68%
    03:00 -2°C° 0 mm 4 mps 766 mmHg 68%
    04:00 -2°C° 0 mm 4 mps 767 mmHg 68%
    05:00 -1°C° 0 mm 3 mps 767 mmHg 68%
    06:00 -1°C° 0 mm 3 mps 767 mmHg 67%
    07:00 0°C° 0 mm 3 mps 768 mmHg 62%
    08:00 +1°C° 0 mm 3 mps 768 mmHg 57%
    09:00 +3°C° 0 mm 3 mps 768 mmHg 52%
    10:00 +3°C° 0 mm 3 mps 768 mmHg 51%
    11:00 +3°C° 0 mm 3 mps 768 mmHg 50%
    12:00 +4°C° 0 mm 3 mps 768 mmHg 50%
    13:00 +4°C° 0 mm 3 mps 768 mmHg 50%
    14:00 +4°C° 0 mm 3 mps 767 mmHg 50%
    15:00 +4°C° 0 mm 3 mps 767 mmHg 51%
    16:00 +5°C° 0 mm 2 mps 767 mmHg 54%
    17:00 +4°C° 0 mm 2 mps 767 mmHg 58%
    18:00 +4°C° 0 mm 2 mps 766 mmHg 61%
    19:00 +3°C° 0 mm 2 mps 766 mmHg 64%
    20:00 +2°C° 0 mm 2 mps 766 mmHg 66%
    21:00 +2°C° 0 mm 2 mps 766 mmHg 68%
    22:00 0°C° 0 mm 3 mps 766 mmHg 70%
    23:00 0°C° 0 mm 3 mps 766 mmHg 73%
    Show more